| time (UTC) | temp F | wind direction | speed MPH | gust MPH | rain 1hr in | rain 24hr in | rain mn in | humidity % | barometer mb |
| 20260831083055 | 57 | 0 | 0.0 | 1.0 | 0.00 | 0.01 | 0.00 | 84 | 1018.7 |
| 20260831081554 | 58 | 0 | 0.0 | 1.0 | 0.00 | 0.01 | 0.00 | 82 | 1018.5 |
| 20260831080049 | 58 | 304 | 0.0 | 4.0 | 0.00 | 0.01 | 0.00 | 81 | 1018.4 |
| 20260831074547 | 59 | 0 | 1.0 | 6.0 | 0.00 | 0.01 | 0.00 | 82 | 1018.4 |
| 20260831073103 | 58 | 30 | 3.0 | 8.0 | 0.00 | 0.01 | 0.00 | 87 | 1018.3 |
| 20260831071552 | 58 | 0 | 0.0 | 4.0 | 0.00 | 0.01 | 0.00 | 90 | 1018.3 |
| 20260831070049 | 59 | 0 | 1.0 | 4.0 | 0.00 | 0.01 | 0.00 | 90 | 1018.3 |
| 20260831064558 | 59 | 0 | 0.0 | 4.0 | 0.00 | 0.01 | 0.00 | 90 | 1018.1 |
| 20260831063052 | 59 | 5 | 0.0 | 4.0 | 0.00 | 0.01 | 0.00 | 91 | 1018.0 |
| 20260831061548 | 59 | 0 | 0.0 | 3.0 | 0.00 | 0.01 | 0.00 | 90 | 1018.0 |
| 20260831060111 | 59 | 0 | 0.0 | 4.0 | 0.00 | 0.01 | 0.00 | 88 | 1017.9 |
| 20260831054558 | 59 | 291 | 0.0 | 1.0 | 0.00 | 0.01 | 0.00 | 88 | 1017.8 |
| 20260831053055 | 59 | 0 | 0.0 | 2.0 | 0.00 | 0.01 | 0.00 | 86 | 1017.7 |
| 20260831051557 | 59 | 0 | 0.0 | 2.0 | 0.00 | 0.01 | 0.00 | 84 | 1017.7 |
| 20260831050055 | 60 | 0 | 0.0 | 2.0 | 0.00 | 0.01 | 0.00 | 82 | 1017.5 |
| 20260831044556 | 60 | 328 | 0.0 | 2.0 | 0.00 | 0.01 | 0.00 | 82 | 1017.5 |
| 20260831043048 | 61 | 0 | 0.0 | 3.0 | 0.00 | 0.01 | 0.00 | 83 | 1017.6 |
| 20260831041643 | 61 | 0 | 0.0 | 3.0 | 0.00 | 0.01 | 0.00 | 84 | 1017.6 |
| 20260831040051 | 62 | 0 | 1.0 | 4.0 | 0.00 | 0.01 | 0.00 | 83 | 1017.4 |
| 20260831034548 | 63 | 331 | 0.0 | 3.0 | 0.00 | 0.01 | 0.01 | 83 | 1017.7 |
| 20260831033100 | 64 | 0 | 0.0 | 4.0 | 0.00 | 0.01 | 0.01 | 80 | 1017.5 |
| 20260831031552 | 66 | 317 | 2.0 | 9.0 | 0.00 | 0.01 | 0.01 | 82 | 1017.6 |
| 20260831030054 | 66 | 329 | 6.0 | 13.0 | 0.00 | 0.01 | 0.01 | 86 | 1017.7 |
| 20260831024603 | 67 | 340 | 4.0 | 10.0 | 0.01 | 0.01 | 0.01 | 90 | 1017.5 |
| 20260831023057 | 67 | 304 | 3.0 | 5.0 | 0.01 | 0.01 | 0.01 | 88 | 1017.1 |
| 20260831021554 | 67 | 298 | 3.0 | 7.0 | 0.01 | 0.01 | 0.01 | 86 | 1017.2 |
| 20260831020049 | 67 | 256 | 2.0 | 8.0 | 0.01 | 0.01 | 0.01 | 83 | 1016.7 |
| 20260831014547 | 67 | 294 | 4.0 | 9.0 | 0.00 | 0.00 | 0.00 | 80 | 1017.0 |
| 20260831013107 | 68 | 285 | 4.0 | 8.0 | 0.00 | 0.00 | 0.00 | 76 | 1016.7 |
| 20260831011556 | 68 | 306 | 3.0 | 6.0 | 0.00 | 0.00 | 0.00 | 73 | 1016.5 |
| 20260831010116 | 69 | 284 | 2.0 | 5.0 | 0.00 | 0.00 | 0.00 | 72 | 1016.2 |
| 20260831004549 | 68 | 306 | 2.0 | 4.0 | 0.00 | 0.00 | 0.00 | 73 | 1015.9 |
| 20260831003056 | 68 | 0 | 0.0 | 3.0 | 0.00 | 0.00 | 0.00 | 73 | 1015.5 |
| 20260831001552 | 69 | 339 | 2.0 | 5.0 | 0.00 | 0.00 | 0.00 | 72 | 1015.7 |
| 20260831000110 | 69 | 0 | 0.0 | 2.0 | 0.00 | 0.00 | 0.00 | 69 | 1015.2 |
| 20260830234559 | 69 | 305 | 0.0 | 3.0 | 0.00 | 0.00 | 0.00 | 71 | 1015.1 |
| 20260830233051 | 69 | 244 | 0.0 | 3.0 | 0.00 | 0.00 | 0.00 | 69 | 1015.0 |
| 20260830231557 | 70 | 0 | 0.0 | 2.0 | 0.00 | 0.00 | 0.00 | 68 | 1015.2 |
| 20260830230054 | 70 | 0 | 0.0 | 0.0 | 0.00 | 0.00 | 0.00 | 69 | 1015.2 |
| 20260830224555 | 72 | 0 | 0.0 | 0.0 | 0.00 | 0.00 | 0.00 | 67 | 1015.2 |
| 20260830223128 | 72 | 0 | 0.0 | 1.0 | 0.00 | 0.00 | 0.00 | 61 | 1015.4 |
| 20260830221553 | 73 | 0 | 0.0 | 1.0 | 0.00 | 0.00 | 0.00 | 61 | 1015.6 |
| 20260830220107 | 73 | 244 | 0.0 | 1.0 | 0.00 | 0.00 | 0.00 | 58 | 1015.5 |
| 20260830214603 | 73 | 244 | 2.0 | 6.0 | 0.00 | 0.00 | 0.00 | 57 | 1015.8 |
| 20260830213056 | 73 | 315 | 2.0 | 8.0 | 0.00 | 0.00 | 0.00 | 58 | 1015.8 |
| 20260830211549 | 73 | 327 | 3.0 | 9.0 | 0.00 | 0.00 | 0.00 | 58 | 1015.9 |
| 20260830210049 | 73 | 265 | 4.0 | 8.0 | 0.00 | 0.00 | 0.00 | 58 | 1016.1 |
| 20260830204547 | 73 | 292 | 2.0 | 9.0 | 0.00 | 0.00 | 0.00 | 58 | 1016.2 |
| 20260830203055 | 73 | 277 | 2.0 | 7.0 | 0.00 | 0.00 | 0.00 | 58 | 1016.1 |
| 20260830201552 | 74 | 261 | 2.0 | 6.0 | 0.00 | 0.00 | 0.00 | 59 | 1016.4 |
| 20260830200103 | 73 | 236 | 1.0 | 5.0 | 0.00 | 0.00 | 0.00 | 60 | 1016.5 |
| 20260830194608 | 73 | 275 | 3.0 | 6.0 | 0.00 | 0.00 | 0.00 | 61 | 1016.6 |
| 20260830193103 | 73 | 239 | 4.0 | 9.0 | 0.00 | 0.00 | 0.00 | 58 | 1016.9 |
| 20260830191551 | 73 | 223 | 3.0 | 7.0 | 0.00 | 0.00 | 0.00 | 62 | 1017.0 |
| 20260830190105 | 73 | 225 | 3.0 | 8.0 | 0.00 | 0.00 | 0.00 | 60 | 1017.2 |
| 20260830184608 | 73 | 263 | 4.0 | 10.0 | 0.00 | 0.00 | 0.00 | 61 | 1017.5 |
| 20260830183100 | 73 | 264 | 2.0 | 7.0 | 0.00 | 0.00 | 0.00 | 63 | 1017.4 |
| 20260830181549 | 72 | 264 | 4.0 | 10.0 | 0.00 | 0.00 | 0.00 | 64 | 1017.6 |
| 20260830180103 | 72 | 258 | 4.0 | 10.0 | 0.00 | 0.00 | 0.00 | 63 | 1017.9 |
| 20260830174605 | 72 | 283 | 4.0 | 12.0 | 0.00 | 0.00 | 0.00 | 64 | 1018.0 |
| 20260830173107 | 72 | 280 | 4.0 | 9.0 | 0.00 | 0.00 | 0.00 | 65 | 1018.1 |
| 20260830171621 | 72 | 241 | 4.0 | 9.0 | 0.00 | 0.00 | 0.00 | 64 | 1018.0 |
| 20260830170103 | 72 | 271 | 3.0 | 8.0 | 0.00 | 0.00 | 0.00 | 63 | 1017.9 |
| 20260830164557 | 72 | 271 | 2.0 | 12.0 | 0.00 | 0.00 | 0.00 | 60 | 1017.6 |
| 20260830163052 | 73 | 240 | 2.0 | 7.0 | 0.00 | 0.00 | 0.00 | 59 | 1018.2 |
| 20260830161602 | 73 | 273 | 4.0 | 10.0 | 0.00 | 0.00 | 0.00 | 57 | 1018.2 |
| 20260830154553 | 75 | 269 | 6.0 | 17.0 | 0.00 | 0.00 | 0.00 | 55 | 1018.3 |
| 20260830153054 | 75 | 272 | 5.0 | 13.0 | 0.00 | 0.00 | 0.00 | 56 | 1018.4 |
| 20260830151610 | 73 | 269 | 6.0 | 10.0 | 0.00 | 0.00 | 0.00 | 58 | 1018.5 |
| 20260830150105 | 73 | 306 | 6.0 | 13.0 | 0.00 | 0.00 | 0.00 | 58 | 1018.6 |
| 20260830144557 | 73 | 234 | 5.0 | 13.0 | 0.00 | 0.00 | 0.00 | 58 | 1018.7 |
| 20260830143055 | 72 | 272 | 3.0 | 9.0 | 0.00 | 0.00 | 0.00 | 62 | 1018.7 |
| 20260830141604 | 70 | 228 | 3.0 | 10.0 | 0.00 | 0.00 | 0.00 | 62 | 1018.7 |
| 20260830140100 | 69 | 218 | 5.0 | 11.0 | 0.00 | 0.00 | 0.00 | 63 | 1018.9 |
| 20260830134555 | 69 | 224 | 3.0 | 9.0 | 0.00 | 0.00 | 0.00 | 63 | 1018.8 |
| 20260830133059 | 68 | 269 | 3.0 | 8.0 | 0.00 | 0.00 | 0.00 | 67 | 1019.1 |
| 20260830131554 | 66 | 254 | 4.0 | 10.0 | 0.00 | 0.00 | 0.00 | 69 | 1019.1 |
| 20260830130056 | 63 | 271 | 3.0 | 7.0 | 0.00 | 0.00 | 0.00 | 74 | 1019.2 |
| 20260830124558 | 62 | 225 | 4.0 | 11.0 | 0.00 | 0.00 | 0.00 | 73 | 1019.3 |
| 20260830123058 | 62 | 229 | 3.0 | 9.0 | 0.00 | 0.00 | 0.00 | 72 | 1019.3 |
| 20260830121556 | 62 | 198 | 4.0 | 12.0 | 0.00 | 0.00 | 0.00 | 71 | 1019.4 |
| 20260830120049 | 62 | 250 | 4.0 | 10.0 | 0.00 | 0.00 | 0.00 | 72 | 1019.4 |
| 20260830114601 | 62 | 263 | 4.0 | 11.0 | 0.00 | 0.00 | 0.00 | 70 | 1019.5 |
| 20260830113054 | 61 | 257 | 5.0 | 11.0 | 0.00 | 0.00 | 0.00 | 70 | 1019.4 |
| 20260830111549 | 61 | 267 | 6.0 | 12.0 | 0.00 | 0.00 | 0.00 | 71 | 1019.5 |
| 20260830110057 | 61 | 257 | 3.0 | 10.0 | 0.00 | 0.00 | 0.00 | 71 | 1019.4 |
| 20260830104557 | 61 | 205 | 3.0 | 8.0 | 0.00 | 0.00 | 0.00 | 70 | 1019.3 |
| 20260830103052 | 61 | 279 | 3.0 | 9.0 | 0.00 | 0.00 | 0.00 | 71 | 1019.3 |
| 20260830101551 | 59 | 228 | 3.0 | 8.0 | 0.00 | 0.00 | 0.00 | 73 | 1019.5 |
| 20260830100104 | 58 | 274 | 2.0 | 7.0 | 0.00 | 0.00 | 0.00 | 76 | 1019.5 |
| 20260830094552 | 58 | 275 | 2.0 | 8.0 | 0.00 | 0.00 | 0.00 | 76 | 1019.5 |
| 20260830093051 | 59 | 258 | 2.0 | 7.0 | 0.00 | 0.00 | 0.00 | 75 | 1019.7 |
| 20260830091548 | 58 | 263 | 2.0 | 7.0 | 0.00 | 0.00 | 0.00 | 77 | 1019.9 |
| 20260830090059 | 58 | 234 | 2.0 | 7.0 | 0.00 | 0.00 | 0.00 | 77 | 1020.0 |
| 20260830084616 | 57 | 224 | 3.0 | 7.0 | 0.00 | 0.00 | 0.00 | 78 | 1020.1 |